Temperature
17 16 16 16 16 15 15 15 15 15 15 15 15 15 15 15 15 15 15 15 15 15 15 15 15 15 15 15 15 15 15 15 15 15 15 14 14 14 14 14 14 14 14
17 16 16 16 16 15 15 15 15 15 15 15 15 15 15 15 15 15 15 15 14 14 14 14 14 14 14 14 14 14 14 14 14 14 14 14 14 14 14 14 14 14 14
16 16 16 16 16 15 15 15 15 15 15 15 15 15 15 14 14 14 14 14 14 14 14 14 14 14 14 14 14 14 14 14 14 14 14 14 14 14 13 13 13 13 13
16 16 16 16 16 15 15 15 15 15 15 14 14 14 14 14 14 14 14 14 14 14 14 14 13 13 13 13 13 13 13 13 14 14 14 14 13 13 13 13 13 13 13
16 16 16 16 16 15 15 15 15 14 14 14 14 14 14 14 14 14 14 14 14 13 13 13 13 13 13 13 13 13 13 13 13 14 13 13 13 13 13 13 13 13 13
16 16 16 15 15 15 15 14 14 14 14 14 14 13 13 13 14 14 14 13 13 13 13 13 13 13 13 13 13 13 13 13 13 13 13 13 12 12 12 12 12 12 12
16 16 15 15 15 15 14 14 14 13 13 13 13 13 13 13 14 14 14 13 13 13 13 13 13 13 13 13 13 13 13 13 13 12 12 12 12 12 12 12 12 12 12
16 15 15 15 14 14 14 14 13 13 13 13 13 13 13 13 13 13 13 13 13 12 12 12 12 12 12 12 12 12 12 12 12 12 12 12 12 12 12 12 11 11 12
15 15 15 14 14 14 14 14 13 13 13 13 13 13 13 13 13 13 13 13 12 12 12 12 12 12 12 12 12 12 12 12 12 12 12 12 12 12 12 11 11 11 12
15 15 14 14 14 14 14 13 13 13 13 13 13 12 12 12 12 12 12 12 12 12 12 12 12 12 12 12 11 11 11 11 11 11 11 11 11 11 11 11 11 11 11
15 14 14 14 14 14 13 13 13 13 12 12 12 12 12 12 12 12 12 12 12 11 11 11 11 11 12 11 11 11 11 11 11 11 11 11 11 11 11 11 11 11 11
14 14 14 14 13 13 13 13 13 12 12 12 12 12 12 12 12 12 12 12 11 11 11 11 11 11 11 11 11 11 11 11 11 11 11 11 11 11 11 11 11 11 11
14 14 13 13 13 13 13 12 12 12 12 12 12 12 12 12 12 11 11 11 11 11 11 11 11 11 11 11 10 10 10 10 10 11 11 11 11 10 10 10 10 10 10
14 13 13 13 13 13 12 12 12 12 12 12 12 12 12 12 11 11 11 11 11 11 10 10 10 10 10 10 10 10 10 10 10 10 10 10 10 10 10 10 10 10 10
13 13 13 13 13 12 12 12 12 12 12 12 11 11 11 11 11 11 10 10 10 10 10 10 10 10 10 10 10 10 9 9 9 9 10 10 10 10 10 10 9 9 10
13 13 13 13 12 12 12 12 12 12 11 11 11 11 11 11 11 11 11 10 10 10 10 10 10 10 10 10 9 9 9 9 9 9 9 9 9 9 9 9 9 9 9
13 13 12 12 12 12 12 12 12 12 11 11 11 11 11 11 10 10 10 10 10 10 10 10 10 9 9 9 9 9 9 9 9 9 9 9 9 9 9 9 9 9 9
12 12 12 12 12 12 12 12 11 11 11 11 11 10 10 10 10 10 10 10 10 10 10 9 9 9 9 9 9 9 8 8 8 8 8 8 8 8 9 9 9 8 8
12 12 12 12 12 12 11 11 11 11 11 11 11 10 10 10 10 10 9 9 9 9 9 9 9 9 9 8 8 8 8 8 8 8 8 8 8 8 8 8 8 8 8
12 12 12 11 11 11 11 11 11 11 11 11 11 10 10 10 10 10 9 9 9 9 9 9 9 8 8 8 8 8 8 8 8 8 8 8 8 8 8 8 8 8 8
12 12 11 11 11 11 11 11 11 11 10 10 10 10 9 9 10 9 9 9 9 9 9 8 8 8 8 8 8 7 7 7 7 7 7 7 7 7 7 8 8 8 8
12 11 11 11 11 11 10 10 10 10 10 10 9 9 9 9 9 9 9 9 8 8 8 8 8 8 8 8 7 7 7 7 7 7 7 7 7 7 7 7 7 7 7
11 11 11 11 10 10 10 10 10 10 10 9 9 9 9 9 9 8 8 8 8 8 8 8 8 8 7 7 7 7 7 7 7 6 6 6 6 6 7 7 7 7 7
11 11 11 10 10 10 10 10 10 9 9 9 9 9 8 8 8 8 8 8 8 7 7 7 7 7 7 7 7 7 7 7 6 6 6 6 6 6 6 6 6 7 7
11 11 10 10 10 10 10 10 9 9 9 9 8 8 8 8 8 8 7 7 7 7 7 7 7 7 7 7 7 7 7 7 6 6 6 6 6 6 6 6 6 6 6
10 10 10 10 10 9 9 9 9 9 9 8 8 8 8 8 7 7 7 7 7 7 7 7 7 6 6 6 6 6 7 6 6 6 6 6 5 6 6 6 6 6 6
Wind_Speed
1 1 1 1 0 0 1 1 1 0 0 1 1 1 2 2 2 2 3 3 3 3 3 3 3 4 4 3 3 3 3 4 5 4 2 1 2 3 2 4 5 5 5
2 1 1 1 0 0 1 1 1 0 0 0 1 2 2 2 2 3 3 3 3 3 4 4 4 3 3 4 3 4 3 4 5 4 3 2 2 3 3 4 3 3 3
2 2 1 1 1 0 0 1 1 1 1 1 1 2 3 3 3 3 4 4 4 4 4 4 4 3 4 3 4 3 3 3 3 4 3 2 2 2 2 3 2 2 3
2 2 1 1 1 0 0 1 1 1 1 2 2 2 3 3 4 4 4 4 4 4 4 4 3 3 3 3 3 3 3 3 3 4 3 2 2 2 2 3 2 2 3
2 1 1 0 0 0 0 1 1 1 1 2 2 2 3 3 3 4 5 5 4 4 4 3 3 2 4 4 4 4 4 4 3 3 3 2 2 2 2 3 3 2 3
2 1 1 0 0 0 0 0 0 1 1 2 2 3 3 3 5 6 6 5 4 4 4 4 3 2 1 1 3 4 5 5 4 4 3 3 3 4 3 3 3 3 3
2 1 1 1 0 0 1 0 1 1 1 2 2 3 3 4 5 5 6 5 4 4 4 4 4 3 3 3 2 2 3 4 5 5 5 5 4 4 4 4 3 4 4
1 1 0 1 1 1 1 1 1 1 2 2 2 3 3 4 5 5 6 5 4 4 4 4 3 3 3 4 4 4 4 3 4 4 5 5 5 4 4 5 5 5 5
1 1 0 1 1 1 1 1 1 2 2 2 2 2 3 3 4 5 6 4 3 4 4 3 3 3 3 4 4 5 5 5 3 3 3 3 3 4 4 4 4 4 4
1 1 1 1 1 1 2 2 2 2 3 3 2 3 3 3 3 4 5 3 4 4 3 3 1 3 3 4 5 5 6 6 5 4 4 5 5 4 5 5 5 5 4
1 1 1 1 1 1 2 2 2 3 3 4 4 3 3 2 1 1 3 3 4 4 4 4 3 3 3 4 6 6 6 7 6 6 5 4 3 3 4 4 5 5 5
1 1 1 1 2 1 1 2 2 3 3 3 3 3 2 1 1 1 1 3 5 4 4 4 4 3 4 6 5 5 6 7 5 5 4 4 3 3 3 3 3 4 4
0 0 0 1 1 2 2 2 3 3 3 3 3 3 3 2 1 2 2 3 4 4 4 4 4 4 6 5 4 5 5 5 4 4 4 4 3 2 2 2 2 2 3
1 2 2 2 2 1 2 3 3 3 3 3 3 3 3 3 3 2 2 2 2 3 4 3 4 5 5 4 4 3 4 4 4 4 4 4 3 2 2 2 3 3 3
2 3 3 3 2 2 2 2 3 3 3 4 4 4 4 4 4 5 5 4 4 4 5 4 4 3 4 4 4 3 3 3 3 4 4 3 3 3 3 3 2 3 3
3 3 3 3 2 2 2 2 1 2 1 2 4 5 3 3 4 5 6 5 6 6 5 4 4 4 5 5 5 4 4 3 4 4 4 4 3 3 3 3 3 3 3
3 3 3 2 2 3 3 3 3 2 4 6 6 5 5 5 5 5 6 6 7 6 4 4 4 4 5 5 5 5 5 4 4 4 4 4 4 4 3 3 2 3 3
4 3 3 3 3 3 3 3 3 4 3 3 4 5 6 6 5 5 6 5 4 4 4 4 4 5 5 5 5 5 5 5 4 4 4 4 4 4 4 3 3 3 3
3 3 3 3 3 3 3 3 3 4 4 4 4 2 4 5 6 6 5 4 5 5 4 4 4 5 5 5 5 5 5 5 5 5 5 5 4 4 4 4 4 3 3
3 2 3 3 3 3 3 3 4 4 4 4 5 4 3 3 3 2 3 4 5 5 5 5 5 5 5 5 5 5 5 5 5 5 5 5 5 5 5 5 4 4 3
3 3 4 3 3 3 3 4 4 4 4 4 4 3 4 5 5 5 4 4 4 5 5 5 5 5 5 5 5 6 6 5 5 5 5 5 5 5 5 4 4 4 4
3 2 2 3 3 3 3 4 4 4 4 4 4 2 2 4 4 4 4 4 4 4 5 5 5 5 5 5 6 6 6 6 5 5 5 5 5 5 5 5 5 4 4
3 3 3 3 3 3 4 4 4 4 3 3 4 4 4 4 4 5 5 5 5 5 5 5 5 6 5 5 5 5 5 6 5 5 5 6 5 5 5 5 6 6 5
3 3 3 2 3 3 3 3 3 3 3 4 4 4 4 4 4 5 5 5 5 5 5 5 5 7 8 7 6 6 5 6 6 5 7 7 7 6 6 6 6 6 6
2 2 2 2 3 3 3 3 3 3 3 4 4 4 4 4 4 5 5 5 6 6 6 6 5 6 7 8 7 7 7 7 7 7 7 6 7 7 7 7 7 7 7
1 1 1 2 2 3 3 3 3 3 3 3 3 4 4 4 4 5 5 5 6 6 6 5 6 7 8 7 7 6 5 5 6 8 8 6 7 7 7 7 8 7 7
Wind_Direction
146 135 86 86 76 35 34 47 74 8 314 314 308 300 300 300 291 284 299 306 300 307 306 294 293 301 296 287 280 282 277 269 265 273 277 262 243 258 259 252 241 231 217
144 144 133 112 90 58 50 14 12 32 346 339 292 293 296 301 300 292 294 303 300 300 306 307 299 295 296 295 294 286 283 276 263 266 274 270 257 249 249 253 251 249 250
140 139 118 95 90 68 34 358 341 321 330 323 303 312 312 312 303 294 291 294 294 293 297 301 303 300 294 301 294 295 288 278 267 261 267 279 266 263 262 254 257 267 267
142 133 112 87 61 4 15 338 330 329 338 330 329 320 317 313 307 297 290 287 288 290 295 296 296 301 299 298 290 290 288 281 268 257 260 267 264 266 264 259 268 269 279
150 145 120 98 75 43 33 15 9 352 348 351 336 328 317 305 313 310 296 286 288 292 299 301 303 325 339 319 310 314 297 279 273 266 263 272 280 277 271 269 277 283 278
158 155 129 117 127 131 262 287 352 346 342 346 341 324 317 337 7 347 316 295 294 296 301 303 299 286 330 328 334 327 313 285 281 276 266 269 275 275 271 266 264 269 277
147 151 149 188 190 233 262 256 284 297 316 330 327 324 328 0 8 346 325 298 294 302 306 304 305 331 331 317 322 279 283 290 284 277 276 273 272 264 261 261 258 269 278
126 142 164 237 249 253 250 271 292 305 314 314 316 325 330 354 11 343 327 297 300 308 308 301 304 318 333 332 313 309 300 287 266 261 273 276 275 278 259 256 260 255 262
91 51 329 277 286 287 280 286 290 297 300 298 310 322 324 336 6 344 325 311 318 313 311 312 307 310 9 342 307 305 306 298 261 236 258 274 300 281 264 258 253 251 256
53 34 22 359 314 304 302 298 296 288 289 296 308 311 309 319 0 344 330 314 320 310 306 304 359 340 353 325 297 295 295 300 304 291 264 250 252 248 233 244 250 250 260
48 35 23 356 314 303 315 309 301 300 305 302 302 301 304 321 356 18 334 317 316 307 307 308 343 42 345 313 297 296 299 298 290 284 281 277 263 253 243 240 248 256 262
51 25 351 307 303 358 332 307 299 294 284 290 295 302 311 313 354 22 289 286 310 308 308 316 343 11 316 295 291 305 298 289 281 287 286 286 280 276 268 262 255 266 274
298 300 295 300 301 305 293 285 279 279 291 304 302 303 312 322 344 148 230 257 273 293 312 334 318 294 287 282 258 273 281 284 290 292 292 293 294 296 297 286 262 244 257
232 246 247 246 254 273 292 298 301 303 305 304 307 309 315 318 330 340 318 294 262 273 301 290 254 252 264 288 294 285 286 294 298 295 292 295 303 295 279 278 274 268 267
238 241 250 252 260 274 285 313 309 323 325 306 308 307 311 315 345 340 316 309 309 310 306 294 299 311 312 315 314 313 307 304 296 298 298 294 290 290 283 285 288 279 267
241 246 253 259 267 269 273 266 232 268 227 242 264 286 306 319 309 302 296 289 287 286 288 296 305 311 314 316 317 316 310 309 308 301 300 296 293 280 271 269 272 276 278
247 256 262 264 264 270 281 290 293 250 220 227 229 238 261 282 279 277 280 280 266 261 268 292 304 311 312 313 313 313 313 312 306 296 292 289 284 280 277 272 267 266 270
246 239 250 258 264 271 279 286 292 301 301 293 235 215 232 244 248 251 256 271 275 256 277 293 301 305 305 308 309 310 310 311 308 299 291 287 281 280 278 273 268 269 266
245 252 254 267 268 271 279 284 290 296 299 303 306 255 212 229 222 227 235 277 293 297 298 298 298 300 302 305 304 299 298 301 304 300 297 295 292 286 280 278 278 270 265
230 233 254 261 267 273 279 283 289 293 293 296 302 314 313 288 290 279 267 286 293 296 295 295 299 302 301 301 299 296 293 295 298 296 300 299 295 292 286 278 273 266 258
242 219 217 255 272 284 288 289 292 291 291 296 306 337 321 300 304 310 307 306 306 308 309 307 306 300 297 298 299 299 300 301 304 304 304 301 296 294 290 284 278 272 269
249 244 236 253 269 278 286 285 285 288 293 297 307 316 251 293 313 316 316 317 314 311 311 309 306 306 306 302 298 299 299 300 300 302 305 303 296 291 288 285 278 271 265
238 242 247 259 268 264 268 282 290 294 297 298 307 316 315 317 317 319 320 319 317 314 315 312 309 310 316 317 314 304 297 298 303 303 295 290 291 289 285 280 277 273 265
233 243 252 262 270 275 280 287 289 297 307 311 312 313 312 314 315 322 320 317 316 316 317 315 313 314 315 315 314 316 321 318 309 299 289 284 283 282 279 274 271 266 261
232 239 248 264 279 287 292 294 296 301 305 307 305 303 306 311 313 314 314 316 315 313 313 312 311 310 308 310 317 326 347 339 319 306 289 281 281 278 273 269 267 266 260
238 247 261 272 279 284 287 288 292 298 297 299 301 304 307 308 312 312 310 311 309 306 304 304 310 311 309 307 318 338 340 320 309 302 291 282 280 279 278 271 267 262 261
Height
1526 1525 1524 1524 1523 1522 1522 1521 1520 1519 1519 1518 1518 1518 1518 1517 1516 1515 1515 1514 1513 1512 1511 1510 1509 1509 1508 1508 1507 1507 1506 1506 1505 1504 1504 1503 1502 1502 1502 1502 1503 1503 1503
1525 1524 1524 1523 1522 1522 1521 1520 1519 1518 1518 1517 1517 1517 1516 1516 1515 1515 1514 1513 1512 1510 1510 1508 1507 1507 1506 1506 1505 1504 1504 1503 1503 1501 1501 1501 1500 1500 1499 1499 1500 1500 1500
1524 1524 1523 1523 1522 1521 1521 1520 1519 1518 1517 1516 1516 1515 1515 1515 1514 1513 1512 1511 1510 1509 1508 1507 1506 1505 1504 1504 1503 1502 1502 1501 1501 1500 1499 1498 1497 1497 1497 1497 1497 1496 1497
1524 1523 1522 1521 1521 1521 1520 1519 1518 1517 1516 1515 1514 1514 1514 1513 1512 1511 1510 1509 1508 1507 1506 1505 1504 1503 1502 1501 1501 1500 1500 1499 1498 1497 1497 1496 1495 1494 1494 1494 1494 1494 1494
1522 1522 1521 1521 1520 1519 1519 1518 1517 1516 1515 1514 1513 1513 1512 1512 1511 1509 1509 1508 1506 1505 1504 1503 1502 1501 1500 1499 1499 1498 1497 1497 1496 1495 1494 1494 1493 1492 1492 1492 1491 1491 1490
1521 1521 1520 1520 1519 1518 1518 1517 1516 1515 1514 1513 1512 1512 1511 1510 1509 1507 1506 1505 1504 1503 1502 1501 1500 1499 1498 1497 1496 1495 1494 1494 1493 1493 1492 1491 1490 1490 1489 1489 1489 1488 1488
1520 1519 1519 1519 1518 1517 1517 1516 1515 1514 1513 1511 1511 1510 1509 1508 1507 1505 1504 1503 1502 1501 1500 1499 1499 1498 1496 1495 1493 1492 1491 1490 1490 1489 1489 1488 1488 1487 1486 1486 1486 1485 1485
1519 1518 1518 1517 1517 1516 1515 1515 1514 1513 1511 1510 1510 1509 1508 1507 1505 1504 1503 1501 1501 1499 1498 1497 1496 1495 1494 1492 1491 1490 1489 1488 1487 1486 1485 1485 1484 1483 1483 1483 1482 1482 1481
1517 1517 1516 1516 1515 1515 1514 1513 1512 1511 1510 1510 1509 1507 1506 1505 1504 1502 1501 1499 1498 1497 1496 1495 1493 1492 1491 1489 1488 1487 1486 1485 1484 1482 1482 1481 1480 1479 1479 1479 1479 1479 1479
1516 1515 1515 1514 1514 1513 1512 1511 1511 1510 1509 1509 1507 1506 1505 1503 1502 1500 1498 1497 1496 1495 1494 1493 1491 1490 1488 1487 1485 1484 1482 1482 1481 1479 1478 1477 1476 1476 1475 1475 1475 1476 1476
1515 1514 1514 1513 1512 1512 1511 1510 1509 1509 1508 1507 1506 1505 1503 1501 1500 1498 1497 1496 1495 1493 1493 1492 1490 1488 1486 1484 1482 1481 1479 1478 1477 1475 1475 1474 1473 1472 1472 1471 1471 1472 1472
1513 1513 1512 1512 1512 1511 1509 1508 1508 1507 1506 1505 1504 1503 1501 1500 1498 1496 1495 1494 1493 1491 1490 1490 1488 1485 1483 1481 1479 1478 1476 1474 1473 1472 1471 1470 1470 1469 1469 1468 1468 1468 1468
1512 1511 1511 1510 1510 1509 1508 1507 1506 1505 1505 1504 1503 1502 1500 1498 1496 1495 1493 1492 1491 1490 1488 1487 1485 1483 1480 1479 1477 1475 1473 1472 1470 1469 1468 1467 1467 1466 1466 1465 1465 1465 1464
1510 1509 1509 1509 1508 1507 1506 1506 1505 1504 1502 1501 1501 1499 1498 1496 1495 1493 1492 1491 1489 1488 1486 1484 1483 1481 1479 1477 1475 1473 1471 1469 1468 1467 1466 1465 1464 1464 1463 1463 1462 1462 1462
1508 1507 1507 1507 1506 1505 1504 1503 1502 1501 1500 1499 1498 1497 1496 1494 1493 1492 1490 1489 1488 1486 1484 1483 1482 1480 1478 1476 1474 1471 1469 1467 1466 1465 1464 1463 1462 1461 1461 1461 1460 1460 1459
1505 1505 1505 1505 1504 1503 1502 1502 1500 1499 1498 1497 1495 1494 1493 1492 1491 1490 1488 1487 1485 1484 1483 1482 1480 1478 1476 1474 1472 1470 1468 1466 1464 1463 1462 1462 1461 1460 1459 1458 1458 1458 1457
1503 1503 1503 1502 1502 1501 1501 1500 1499 1497 1496 1494 1493 1492 1491 1489 1488 1487 1485 1484 1483 1482 1481 1480 1478 1477 1475 1473 1471 1469 1466 1465 1463 1462 1461 1460 1459 1458 1457 1456 1456 1455 1455
1500 1500 1500 1500 1499 1499 1498 1497 1496 1495 1494 1492 1491 1489 1488 1486 1485 1484 1482 1482 1481 1480 1479 1477 1476 1474 1473 1471 1469 1467 1465 1463 1462 1460 1459 1458 1457 1456 1455 1455 1454 1453 1453
1498 1498 1497 1497 1497 1496 1495 1495 1494 1493 1491 1490 1489 1487 1485 1484 1482 1481 1480 1480 1479 1478 1476 1475 1474 1472 1471 1469 1467 1465 1463 1461 1460 1458 1457 1456 1455 1454 1453 1453 1452 1451 1451
1495 1495 1494 1494 1494 1493 1492 1492 1491 1490 1489 1487 1486 1485 1483 1482 1481 1479 1478 1477 1476 1475 1474 1473 1471 1470 1468 1466 1464 1463 1461 1459 1457 1456 1454 1453 1452 1452 1451 1450 1450 1449 1448
1493 1492 1491 1491 1491 1491 1490 1489 1488 1487 1486 1485 1484 1482 1480 1480 1479 1477 1476 1475 1473 1472 1471 1470 1468 1467 1465 1463 1462 1460 1458 1457 1455 1453 1452 1451 1450 1449 1448 1448 1447 1447 1446
1490 1490 1489 1489 1488 1488 1487 1486 1485 1484 1483 1482 1481 1480 1478 1477 1476 1475 1474 1472 1471 1469 1468 1466 1465 1464 1462 1460 1459 1457 1455 1454 1452 1451 1449 1448 1447 1446 1445 1444 1444 1444 1444
1487 1487 1487 1486 1485 1484 1483 1483 1482 1481 1479 1478 1478 1477 1476 1475 1473 1472 1471 1470 1468 1467 1465 1463 1462 1460 1459 1457 1455 1454 1452 1451 1450 1448 1446 1445 1444 1443 1442 1441 1441 1440 1440
1485 1484 1484 1483 1483 1482 1481 1480 1479 1478 1477 1476 1475 1474 1473 1472 1471 1469 1468 1466 1465 1464 1462 1460 1459 1457 1455 1454 1452 1451 1449 1447 1446 1445 1443 1442 1441 1440 1439 1438 1437 1437 1437
1482 1482 1481 1481 1480 1479 1479 1478 1477 1476 1475 1474 1472 1471 1470 1469 1468 1466 1465 1464 1462 1460 1459 1457 1455 1453 1452 1450 1449 1447 1445 1443 1442 1441 1439 1438 1437 1436 1435 1435 1434 1433 1433
1479 1479 1479 1478 1477 1477 1476 1475 1474 1474 1473 1471 1470 1469 1468 1466 1465 1464 1462 1461 1459 1457 1456 1454 1452 1450 1448 1447 1445 1443 1441 1439 1438 1436 1435 1434 1433 1432 1431 1431 1430 1430 1430